Wind_Speed
9 9 8 8 8 8 7 6 6 7 8 9 10 10 10 10 9 8 8 8 8 7 8 7 7 7 7 7 6 6 5 4 2
10 9 9 8 8 8 9 8 8 8 9 9 11 10 11 10 10 9 9 9 9 10 9 9 9 9 9 9 8 7 6 4 5
10 10 10 9 9 8 8 8 8 9 10 11 11 11 11 11 10 11 10 10 11 11 11 11 11 10 10 9 8 8 7 6 5
11 11 11 10 10 9 8 8 9 9 9 10 10 11 10 11 11 11 11 12 12 12 12 12 12 10 9 8 8 7 7 7 6
13 12 12 11 11 10 10 9 9 9 10 10 10 10 11 11 12 12 12 12 11 11 10 11 11 10 8 8 7 7 8 6 7
13 13 13 12 12 12 11 11 11 10 10 10 10 10 10 11 11 12 11 11 11 10 9 9 8 7 8 7 6 6 7 6 6
16 14 14 14 14 13 13 13 12 11 11 11 10 10 10 10 10 10 10 9 9 7 7 6 6 6 6 6 6 6 6 6 7
18 17 16 16 15 15 14 14 14 14 14 13 11 11 10 10 9 7 7 7 6 6 4 4 4 5 4 4 4 5 5 6 6
21 19 18 17 17 16 16 16 16 15 15 14 13 12 10 10 10 8 7 7 7 5 4 3 3 2 2 3 3 3 4 5 5
22 22 21 20 19 18 18 18 17 15 15 14 13 12 12 11 10 8 7 6 6 4 3 3 1 0 1 3 4 5 5 6 7
24 23 23 23 22 21 20 19 18 17 16 15 14 13 12 11 9 8 7 6 5 4 6 4 1 2 3 4 5 6 6 7 7
26 26 25 24 23 23 22 21 20 19 18 17 15 14 12 12 10 9 8 7 6 4 6 4 3 3 4 5 5 6 7 8 9
28 27 26 25 24 23 23 22 22 21 19 19 15 15 14 12 11 10 10 9 7 5 5 5 5 6 6 6 6 7 8 10 10
29 28 28 26 25 25 24 24 23 22 19 18 17 16 14 13 12 11 11 10 9 7 8 7 8 8 8 8 9 10 11 12 12
31 29 28 28 27 26 25 25 24 24 22 21 20 17 16 14 12 12 13 13 11 11 10 10 12 12 10 10 10 11 12 13 14
33 30 29 28 27 26 26 26 26 25 23 22 21 19 19 17 16 15 14 14 13 14 13 13 15 15 14 13 13 13 13 14 15
35 32 30 29 28 28 28 27 27 26 25 22 22 21 20 19 17 17 16 16 16 16 16 16 15 17 16 17 15 15 15 14 16
37 35 32 31 30 28 28 26 26 24 24 22 25 22 22 18 19 19 18 18 18 17 17 17 18 18 19 18 18 18 20 18 17
39 38 37 34 32 31 29 28 26 26 25 24 21 21 19 19 19 19 19 18 19 18 18 18 19 20 20 20 20 21 23 23 21
43 42 39 36 35 33 31 30 29 27 27 27 24 24 21 21 21 21 19 20 20 19 20 21 21 22 22 22 23 24 24 25 25
Wind_Direction
180 182 181 183 178 170 162 148 134 110 104 111 114 118 123 131 134 134 128 121 116 108 103 99 99 94 89 87 89 95 103 101 86
182 183 185 186 187 179 164 151 129 116 110 112 118 127 134 137 133 131 128 125 115 108 106 106 102 96 90 88 90 91 95 86 62
188 188 187 188 189 184 168 152 136 130 125 125 128 131 131 131 133 129 128 118 112 109 108 108 107 105 102 98 94 88 83 72 67
194 192 193 188 190 185 173 160 145 139 133 132 129 129 133 134 137 129 123 119 116 114 113 111 111 113 108 102 94 84 75 64 51
195 194 196 191 191 188 181 169 159 152 143 137 137 139 146 138 137 132 128 124 118 116 114 113 109 106 108 99 93 84 75 70 51
197 192 196 196 193 191 185 176 172 164 153 151 150 153 140 146 139 136 134 131 127 125 117 112 109 103 86 84 80 76 73 66 60
193 199 200 200 198 193 189 184 180 173 165 162 160 156 152 145 142 143 144 137 130 127 123 118 112 93 90 83 72 60 52 50 42
192 195 203 203 202 197 193 189 187 182 175 172 169 164 158 150 157 153 152 141 133 139 134 115 101 103 94 85 78 71 54 36 29
188 193 198 202 202 200 196 195 192 188 183 178 176 171 165 166 166 166 169 156 159 162 141 147 113 94 52 36 21 27 30 22 13
198 190 196 199 202 202 200 199 195 191 190 188 181 178 178 178 174 178 190 163 178 191 161 164 159 85 356 351 339 354 359 352 352
204 198 197 198 199 201 201 201 199 194 195 192 190 187 186 184 184 189 196 194 208 201 183 192 203 313 312 321 332 340 341 339 341
206 205 200 199 200 200 201 202 201 200 199 197 193 197 200 189 195 202 205 206 217 176 188 218 243 266 298 313 320 323 326 322 318
207 208 205 202 202 202 203 202 203 203 203 200 198 202 209 203 202 216 222 216 215 205 231 250 270 281 285 296 307 309 307 309 310
206 210 208 205 204 204 205 204 203 205 205 211 199 210 214 216 215 221 237 241 248 245 248 256 270 278 284 291 296 303 307 307 306
216 209 211 209 207 206 206 207 207 205 201 210 209 208 214 220 223 230 241 249 253 255 261 269 269 273 275 279 285 292 298 304 308
223 213 211 212 211 209 210 210 211 208 210 207 214 210 214 214 220 230 240 251 258 261 267 268 274 275 280 284 290 294 299 303 303
223 221 214 214 213 213 213 213 216 212 208 211 213 218 221 222 221 227 237 247 251 255 265 271 274 280 284 283 285 290 292 295 301
221 223 219 217 216 216 218 218 220 221 221 217 215 217 224 227 230 233 235 241 251 256 261 268 276 279 281 288 292 292 293 295 299
217 222 221 220 219 219 219 220 219 223 224 224 229 228 228 232 237 240 243 247 252 259 261 265 272 276 280 282 285 287 289 291 293
218 221 224 222 222 222 223 223 224 222 227 228 227 231 232 236 240 240 244 247 252 253 259 263 265 271 274 276 279 282 285 288 291
Height
3160 3162 3163 3165 3165 3166 3167 3168 3169 3169 3168 3168 3167 3168 3168 3169 3171 3172 3172 3173 3174 3174 3174 3174 3175 3175 3175 3175 3174 3175 3175 3175 3175
3159 3161 3163 3165 3166 3167 3167 3168 3168 3169 3169 3169 3169 3170 3170 3171 3171 3172 3174 3174 3174 3174 3175 3175 3175 3175 3176 3176 3176 3176 3176 3176 3175
3159 3161 3162 3164 3166 3167 3168 3169 3169 3169 3170 3171 3171 3172 3172 3172 3173 3175 3175 3175 3176 3175 3176 3176 3176 3176 3176 3176 3176 3176 3176 3177 3177
3159 3160 3162 3163 3165 3167 3168 3169 3170 3171 3172 3172 3172 3173 3173 3174 3175 3176 3176 3177 3177 3177 3177 3177 3177 3177 3177 3177 3178 3178 3178 3179 3179
3158 3159 3161 3162 3165 3166 3168 3169 3170 3171 3172 3172 3173 3174 3174 3175 3176 3177 3177 3178 3179 3180 3179 3178 3179 3179 3179 3179 3179 3179 3179 3179 3179
3157 3158 3160 3162 3164 3166 3168 3169 3170 3171 3172 3173 3174 3175 3177 3177 3177 3177 3178 3179 3179 3180 3180 3180 3180 3180 3181 3181 3181 3180 3180 3180 3180
3154 3157 3159 3161 3163 3165 3167 3169 3170 3172 3173 3174 3175 3176 3177 3177 3178 3179 3179 3180 3181 3181 3181 3181 3181 3182 3182 3182 3183 3183 3183 3182 3181
3150 3154 3157 3159 3162 3164 3166 3168 3170 3171 3173 3173 3174 3175 3176 3178 3179 3180 3181 3182 3181 3182 3183 3183 3183 3183 3183 3183 3183 3183 3183 3183 3182
3146 3151 3154 3158 3160 3163 3165 3167 3169 3170 3172 3173 3174 3175 3176 3178 3179 3180 3181 3181 3181 3182 3184 3183 3184 3184 3185 3185 3185 3184 3184 3183 3182
3146 3146 3150 3154 3158 3161 3163 3165 3167 3169 3171 3173 3174 3175 3176 3177 3178 3179 3179 3180 3181 3182 3183 3184 3184 3185 3185 3186 3185 3185 3185 3185 3184
3144 3145 3147 3151 3154 3158 3161 3164 3166 3167 3169 3171 3172 3174 3175 3176 3177 3178 3179 3180 3181 3182 3182 3183 3184 3185 3185 3185 3186 3185 3185 3184 3183
3142 3144 3145 3148 3152 3155 3158 3161 3164 3165 3167 3168 3170 3172 3174 3175 3176 3177 3177 3178 3180 3181 3182 3182 3183 3182 3183 3183 3184 3183 3183 3182 3181
3138 3142 3144 3146 3149 3152 3156 3158 3161 3163 3164 3166 3168 3171 3172 3173 3174 3176 3176 3176 3177 3180 3180 3181 3182 3182 3182 3181 3181 3181 3180 3180 3179
3133 3139 3141 3144 3146 3149 3153 3156 3158 3161 3162 3165 3165 3168 3170 3172 3172 3174 3175 3176 3177 3179 3179 3180 3180 3181 3181 3180 3180 3180 3179 3178 3178
3134 3134 3138 3140 3143 3146 3149 3153 3155 3157 3158 3162 3163 3165 3167 3169 3171 3172 3173 3174 3176 3176 3177 3178 3177 3177 3177 3177 3177 3177 3176 3176 3176
3132 3132 3134 3137 3141 3144 3147 3149 3152 3154 3156 3158 3162 3162 3164 3165 3167 3169 3171 3172 3173 3174 3174 3175 3175 3175 3175 3176 3176 3175 3175 3174 3173
3128 3131 3131 3134 3137 3140 3143 3146 3149 3150 3153 3155 3157 3159 3162 3162 3163 3165 3166 3168 3170 3170 3170 3171 3173 3173 3173 3172 3172 3172 3171 3171 3169
3122 3126 3129 3130 3133 3136 3140 3143 3147 3150 3151 3153 3152 3154 3156 3159 3160 3161 3162 3164 3166 3167 3168 3168 3168 3169 3169 3169 3170 3169 3169 3168 3168
3114 3120 3123 3126 3129 3132 3136 3139 3142 3145 3147 3148 3151 3152 3154 3155 3158 3159 3160 3161 3162 3164 3164 3164 3164 3164 3165 3166 3165 3165 3164 3164 3163
3106 3112 3117 3122 3124 3128 3131 3134 3137 3140 3143 3145 3146 3148 3150 3152 3154 3155 3156 3157 3157 3159 3159 3160 3160 3160 3160 3161 3160 3159 3159 3159 3158